Location: Unspecified
(0.0000°N, 0.0000°E)
Time: 10:48:17
(UTC+00:00)

Hubble Space Telescope - Pass Details

Date: 19 December 2018
Orbit: 536 x 540 km, 28.5° (Epoch: 16 August)

Event Time Altitude Azimuth Distance (km) Brightness Sun altitude
Exits shadow 04:16:22 88° 139° (SE) 539 0.6 -22.9°
Drops below altitude 10° 04:20:27 10° 121° (ESE) 1,787 4.6 -22.0°
Sets 04:22:43 0° 120° (ESE) 2,679 5.9 -21.5°
